小惑星2009 MS9

2009 MS9

English version
Home page
Updated on September 3, 2011

---------------------------------------------------------------------

・ プロフィール

発見日 2009年6月25日
発見光度 21.6等
発見者 J.-M. Petit, B. Gladman, J. Kavelaars, P. Rousselot, O. Mousis, J. Parker, L. Jones (Mauna Kea)

・ 軌道要素

The following orbital elements are taken from MPO202472

Epoch 2011 Aug. 27.0 TT = JDT 2455800.5                 MPC
M 359.93370              (2000.0)            P               Q
n   0.00012420     Peri.  128.59649     +0.66528641     +0.44521507
a 397.8622369      Node   220.27163     -0.12327031     +0.85722469
e   0.9723411      Incl.   67.99322     +0.73634124     -0.25874577
P7936              H   10.5           G   0.15
From 44 observations at 2 oppositions, 2009-2011, mean residual 0".17.

・ 光度変化

        H = 10.5  G = 0.15

---------------------------------------------------------------------

軌道要素はMPCのEphemerides and Orbital Elementsに掲載されたものです。
光度グラフはComet for Windowsで作成したものです。

---------------------------------------------------------------------

Copyright(C) Seiichi Yoshida (comet@aerith.net). All rights reserved.